{"data":{"norad_id":69951,"intl_designator":"2026-157J","name":"STARLINK-37841","alt_names":[],"object_type":"PAYLOAD","status":"ACTIVE","operator":null,"country":"US","launch_date":"2026-07-09","launch_site_code":"AFETR","launch_vehicle":null,"mission":null,"orbit_class":"UNKNOWN","rcs_meters":null,"size_class":null,"mass_kg":null,"dimensions":null,"purposes":["comms"],"wikipedia_slug":null,"has_3d_model":false,"image_url":null,"decayed_at":null,"tle_current":{"epoch":"2026-09-19T22:27:09.315072Z","epoch_age_seconds":66589,"freshness":"FRESH","line1":"1 69951U 26157J   26262.93552448  .00015629  00000+0  47258-3 0  9990","line2":"2 69951  53.1612 336.5553 0000742  83.6984 276.4103 15.34409629 11289","mean_motion":15.34409629,"eccentricity":7.42e-5,"inclination_deg":53.1612,"raan_deg":336.5553,"arg_perigee_deg":83.6984,"mean_anomaly_deg":276.4103,"bstar":0.00047258,"rev_number":1128,"period_min":93.847169151205,"perigee_km":462.16703271728,"apogee_km":463.18220916182,"semimajor_km":6840.8116209396,"source":"CELESTRAK","updated_at":"2026-09-20T09:00:44.300356Z"}}}